Temp
71 71 71 71 59 53 46 53 57 56 58 61 64 62 60 60 58 49 66 69 71 69 68 73 77 78 78 78 78 77 77 76 76 75 75 75 75 75 75 75 75 75 76 77 77 77 78 78 78
71 75 72 64 52 45 48 54 56 60 62 62 63 60 59 58 64 63 63 70 72 70 66 69 77 78 78 78 77 77 77 76 75 75 75 75 74 74 75 75 75 75 76 77 78 77 78 78 78
75 76 65 55 48 46 48 56 60 61 64 62 60 64 63 60 65 65 69 71 70 67 66 68 77 77 78 78 77 77 77 76 76 75 75 75 74 74 74 74 75 75 76 77 78 78 78 78 78
73 69 64 54 50 54 56 59 60 60 62 64 64 60 64 69 68 71 72 70 67 67 65 69 76 77 77 77 77 76 77 76 76 76 75 75 74 73 73 73 74 74 75 76 77 78 78 78 78
69 63 53 48 52 56 59 61 62 62 60 61 63 59 59 68 71 70 68 69 67 64 64 67 75 76 77 77 77 77 76 76 76 76 76 75 74 74 73 73 74 74 74 76 77 77 77 77 77
63 60 50 48 53 59 61 63 63 62 62 60 60 60 59 67 67 65 65 64 65 64 62 64 73 75 76 77 77 76 76 75 75 75 75 74 73 74 73 73 74 74 74 75 76 76 77 76 76
61 56 50 50 53 56 61 63 61 61 59 61 64 58 59 62 63 63 63 63 63 63 64 62 62 66 70 72 74 73 72 72 72 72 74 74 73 73 72 72 73 73 74 74 75 75 75 75 75
64 59 49 53 53 54 63 61 60 63 62 68 68 57 55 61 63 63 62 62 61 62 62 61 59 60 60 60 68 70 69 69 70 69 71 71 72 72 72 72 72 73 74 74 75 74 75 75 74
65 54 48 53 53 58 57 57 62 67 66 65 64 63 64 64 64 62 58 60 60 63 60 58 59 59 59 61 62 63 64 66 67 65 65 65 61 61 66 68 71 72 73 73 74 73 74 74 73
62 51 55 62 61 60 60 62 65 63 62 60 61 64 65 64 61 59 56 56 57 59 59 58 58 58 58 62 57 56 58 59 59 60 59 59 59 59 62 66 70 71 72 73 73 73 73 73 68
61 58 62 67 67 65 63 60 65 61 57 61 60 62 62 60 58 58 56 55 55 57 59 59 58 57 56 56 56 55 57 59 60 60 59 60 60 59 60 60 62 62 66 64 68 69 68 67 67
59 67 66 68 69 64 63 66 64 62 64 67 64 63 60 58 57 57 56 55 57 57 58 58 58 56 56 55 55 55 58 59 59 59 59 58 58 58 57 58 60 61 62 62 63 63 64 66 66
62 66 67 68 65 66 67 65 63 63 66 66 64 63 59 57 58 57 58 56 57 56 57 57 57 56 56 55 55 55 58 59 59 57 57 58 58 57 58 58 59 60 61 62 62 64 65 65 66
69 67 66 64 61 62 64 61 62 65 65 64 62 59 58 58 58 57 57 55 57 57 57 57 57 57 56 55 55 55 56 55 58 56 56 58 57 56 57 59 59 60 61 62 62 64 65 65 67
66 62 66 65 63 63 66 60 61 65 64 61 60 59 58 58 59 59 58 57 56 56 57 57 58 57 56 55 55 56 56 56 56 57 58 58 58 58 59 59 59 60 61 62 63 64 65 65 66
62 58 52 62 65 66 65 54 64 64 62 58 59 59 58 58 59 59 59 58 57 56 57 57 60 57 56 55 55 56 57 57 58 58 58 60 60 60 59 59 59 60 61 62 63 64 64 64 65
58 53 54 59 65 62 60 58 62 61 62 58 57 57 57 57 57 58 60 59 57 57 57 58 57 57 57 57 57 57 58 58 59 59 60 61 62 62 59 60 62 64 63 63 63 64 64 64 64
51 52 55 55 61 60 57 58 61 61 61 58 56 56 56 56 57 59 59 60 58 58 57 58 57 57 57 57 57 58 58 58 59 59 60 61 62 62 63 61 62 64 62 63 63 63 64 64 63
59 55 54 58 64 59 58 58 64 59 58 56 54 54 53 55 58 59 59 59 59 58 58 57 57 57 56 57 56 56 56 57 58 59 61 62 62 61 63 63 62 64 62 63 64 64 63 62 63
55 52 51 57 59 57 57 56 57 58 58 59 55 53 53 54 56 58 58 57 58 58 58 58 58 57 57 56 56 56 57 58 59 60 61 62 62 63 62 63 62 63 62 63 64 63 62 62 63
55 51 52 53 55 56 52 50 53 58 56 57 55 56 54 54 54 56 57 56 57 58 57 59 58 57 56 57 57 58 59 59 60 60 60 61 63 63 63 63 62 62 63 62 63 63 63 61 62
50 59 58 55 50 43 53 38 50 53 54 55 54 52 54 54 55 56 56 56 56 59 58 58 58 57 58 57 58 57 57 57 59 60 60 61 62 63 63 62 62 62 62 62 63 62 63 62 60
56 60 57 54 48 44 46 39 47 49 52 54 53 53 53 54 55 56 56 58 57 59 58 57 59 58 58 59 59 59 58 58 59 59 60 60 62 63 63 63 63 63 62 62 62 62 62 63 61
63 56 51 46 43 35 46 43 43 48 54 55 53 55 54 54 55 56 57 57 57 58 58 57 58 58 58 59 60 59 58 58 57 58 58 59 60 62 63 63 62 63 62 63 63 62 62 61 61
56 47 37 33 33 34 46 43 47 57 59 59 57 55 55 56 54 54 55 55 56 57 58 57 58 58 58 58 59 59 58 58 59 59 58 59 60 61 62 62 62 62 62 63 63 62 61 62 61
51 49 39 32 31 39 46 41 51 58 59 59 59 57 56 55 55 54 55 55 57 58 58 58 58 58 57 58 59 58 59 58 57 59 59 59 60 61 62 62 63 62 63 64 63 62 61 61 60
51 47 52 43 40 38 41 48 55 57 56 55 53 54 54 54 53 54 55 55 56 57 57 58 58 57 58 58 57 59 58 59 59 58 59 59 60 62 62 62 61 62 62 63 62 62 61 62 62
58 59 46 40 34 32 39 42 44 53 56 54 52 51 53 54 53 54 55 55 56 57 57 58 58 58 58 57 57 59 59 60 59 58 58 60 61 62 60 59 60 59 60 61 61 60 61 60 61
51 47 46 46 41 34 30 38 50 54 57 56 54 53 54 55 56 55 55 56 57 56 56 57 57 57 57 57 57 58 59 59 59 58 58 59 60 61 60 60 60 60 60 60 59 59 62 60 60
58 52 50 41 40 40 39 42 55 55 57 59 57 55 54 57 57 56 56 55 56 56 56 57 57 58 57 57 57 58 59 59 59 59 59 59 60 61 61 62 61 60 60 60 61 60 61 60 60
MSLP
1012.46 1012.79 1013.07 1013.53 1014.73 1015.45 1015.46 1014.96 1014.33 1014.03 1013.74 1013.30 1013.48 1013.96 1014.40 1014.68 1015.43 1015.99 1014.51 1013.98 1013.89 1013.86 1014.09 1014.19 1014.44 1014.66 1014.88 1014.87 1015.12 1015.25 1015.37 1015.53 1015.62 1015.67 1015.76 1015.72 1015.68 1015.65 1015.60 1015.61 1015.64 1015.63 1015.58 1015.50 1015.62 1015.68 1015.69 1015.80 1015.86
1012.72 1012.76 1013.24 1014.00 1015.55 1016.33 1015.64 1014.66 1014.21 1013.57 1013.34 1013.35 1013.43 1013.82 1014.12 1014.27 1014.48 1014.70 1014.54 1013.96 1013.67 1013.79 1013.99 1014.24 1014.36 1014.45 1014.48 1014.59 1014.73 1014.95 1015.14 1015.38 1015.49 1015.51 1015.46 1015.42 1015.38 1015.45 1015.48 1015.43 1015.47 1015.50 1015.44 1015.36 1015.31 1015.52 1015.53 1015.66 1015.82
1012.23 1012.61 1013.88 1014.96 1016.20 1016.23 1015.39 1014.05 1013.46 1013.10 1013.03 1013.12 1013.56 1013.63 1013.89 1014.04 1014.22 1014.40 1014.04 1013.85 1013.89 1013.93 1013.89 1014.06 1013.94 1014.10 1014.35 1014.41 1014.54 1014.76 1014.92 1015.05 1015.12 1015.10 1015.08 1015.06 1015.09 1015.24 1015.32 1015.32 1015.26 1015.30 1015.27 1015.11 1015.08 1015.24 1015.35 1015.45 1015.66
1012.53 1013.23 1014.61 1015.22 1015.70 1015.47 1014.70 1013.59 1013.25 1013.27 1013.06 1013.22 1013.19 1013.73 1013.90 1013.72 1013.74 1013.77 1013.70 1014.00 1014.15 1013.89 1013.91 1014.00 1013.99 1014.18 1014.28 1014.27 1014.34 1014.42 1014.48 1014.53 1014.52 1014.53 1014.62 1014.72 1014.86 1014.99 1015.10 1015.18 1015.18 1015.15 1015.03 1015.06 1014.89 1015.03 1015.20 1015.29 1015.45
1013.06 1014.04 1014.95 1015.73 1015.29 1014.41 1014.01 1013.41 1013.19 1013.26 1013.10 1013.20 1013.37 1013.69 1014.01 1013.73 1013.42 1013.83 1014.07 1014.24 1014.26 1014.13 1014.09 1014.06 1014.06 1014.19 1014.19 1014.11 1014.02 1014.00 1014.04 1013.99 1014.09 1014.05 1014.02 1014.13 1014.33 1014.54 1014.75 1014.90 1014.90 1014.89 1014.89 1014.81 1014.77 1014.82 1015.03 1015.21 1015.35
1013.60 1014.56 1015.52 1015.77 1015.13 1014.32 1013.29 1012.91 1013.01 1012.92 1012.77 1013.07 1013.54 1013.87 1014.10 1013.89 1013.94 1014.37 1014.28 1014.26 1014.18 1014.24 1014.22 1014.15 1014.21 1014.10 1013.92 1013.83 1013.79 1013.82 1013.70 1013.61 1013.55 1013.50 1013.48 1013.72 1013.83 1014.03 1014.25 1014.41 1014.53 1014.62 1014.67 1014.61 1014.50 1014.63 1014.78 1015.00 1015.28
1013.57 1014.52 1015.26 1015.37 1014.71 1013.95 1013.14 1012.62 1012.73 1012.60 1012.78 1012.90 1013.18 1013.96 1014.15 1014.21 1014.50 1014.52 1014.48 1014.44 1014.37 1014.32 1014.35 1014.49 1014.55 1014.40 1014.24 1014.13 1013.99 1013.90 1013.79 1013.66 1013.44 1013.25 1013.06 1013.06 1013.42 1013.56 1013.90 1014.06 1014.15 1014.28 1014.32 1014.35 1014.32 1014.50 1014.75 1014.92 1015.20
1013.17 1014.15 1015.07 1014.97 1014.46 1013.58 1012.40 1012.38 1012.25 1012.45 1012.60 1012.74 1012.96 1013.61 1014.11 1014.32 1014.65 1014.71 1014.70 1014.78 1014.78 1014.72 1014.70 1014.75 1014.77 1014.75 1014.66 1014.55 1014.35 1014.02 1013.91 1013.72 1013.48 1013.30 1012.96 1013.04 1013.06 1013.21 1013.24 1013.45 1013.79 1013.91 1013.99 1014.02 1014.03 1014.24 1014.47 1014.77 1015.15
1012.96 1013.94 1014.55 1014.46 1014.17 1012.98 1012.36 1012.52 1012.43 1012.26 1012.60 1012.87 1013.20 1013.49 1013.88 1014.33 1014.73 1014.93 1015.17 1015.19 1015.11 1014.92 1014.81 1014.74 1014.91 1014.85 1014.69 1014.50 1014.40 1014.28 1014.08 1013.77 1013.54 1013.54 1013.37 1013.24 1013.44 1013.36 1013.22 1013.32 1013.42 1013.58 1013.70 1013.74 1013.77 1014.01 1014.30 1014.66 1014.98
1012.75 1013.59 1013.48 1012.85 1012.65 1012.30 1012.31 1012.27 1012.35 1012.72 1012.92 1013.30 1013.63 1013.93 1014.30 1014.63 1015.05 1015.35 1015.52 1015.45 1015.39 1015.16 1014.87 1014.89 1014.83 1014.81 1014.70 1014.49 1014.51 1014.37 1014.19 1014.01 1013.80 1013.61 1013.56 1013.39 1013.36 1013.38 1013.25 1013.19 1013.28 1013.34 1013.43 1013.42 1013.61 1013.76 1014.06 1014.51 1014.99
1012.00 1012.32 1011.83 1011.29 1011.23 1011.60 1011.93 1012.14 1012.31 1012.72 1013.34 1013.14 1013.34 1014.02 1014.56 1015.08 1015.35 1015.51 1015.51 1015.41 1015.50 1015.25 1015.04 1014.83 1014.84 1014.77 1014.60 1014.55 1014.35 1014.29 1014.11 1013.80 1013.61 1013.53 1013.41 1013.23 1013.05 1013.08 1013.19 1013.20 1013.33 1013.44 1013.46 1013.63 1013.43 1013.57 1014.05 1014.55 1014.87
1011.26 1010.84 1010.77 1010.34 1010.34 1011.02 1011.49 1011.62 1012.24 1012.57 1012.38 1012.20 1013.19 1013.91 1014.69 1015.40 1015.61 1015.60 1015.62 1015.60 1015.56 1015.33 1015.03 1014.76 1014.76 1014.69 1014.54 1014.39 1014.26 1014.30 1014.02 1013.70 1013.60 1013.45 1013.33 1013.19 1013.00 1013.01 1013.08 1013.18 1013.31 1013.34 1013.45 1013.46 1013.57 1013.74 1014.06 1014.54 1014.96
1010.62 1010.06 1010.09 1009.94 1010.03 1010.36 1010.82 1011.31 1012.04 1012.35 1012.35 1012.66 1013.57 1014.37 1014.92 1015.39 1015.45 1015.52 1015.61 1015.68 1015.50 1015.32 1015.02 1014.77 1014.76 1014.65 1014.46 1014.37 1014.25 1014.22 1013.97 1013.66 1013.44 1013.37 1013.18 1013.09 1012.98 1012.97 1012.92 1012.94 1013.01 1013.10 1013.21 1013.29 1013.47 1013.75 1014.20 1014.56 1015.00
1009.60 1009.64 1009.86 1010.09 1010.39 1010.55 1010.90 1011.47 1011.96 1011.92 1012.50 1013.22 1013.94 1014.59 1015.00 1015.41 1015.63 1015.65 1015.62 1015.49 1015.48 1015.38 1015.05 1014.83 1014.67 1014.58 1014.34 1014.41 1014.39 1014.19 1013.85 1013.53 1013.15 1013.11 1012.98 1012.81 1012.86 1012.79 1012.83 1012.84 1012.81 1012.80 1012.88 1013.08 1013.37 1013.71 1014.26 1014.62 1014.97
1009.49 1009.85 1009.94 1010.26 1010.51 1010.74 1010.92 1011.73 1011.76 1011.70 1012.57 1013.41 1014.16 1014.83 1015.28 1015.57 1015.70 1015.53 1015.62 1015.46 1015.44 1015.36 1015.02 1014.80 1014.56 1014.36 1014.43 1014.41 1014.20 1013.89 1013.47 1013.22 1012.96 1012.82 1012.63 1012.57 1012.50 1012.47 1012.39 1012.49 1012.50 1012.54 1012.74 1013.00 1013.29 1013.66 1014.13 1014.64 1015.16
1009.97 1010.40 1010.62 1010.36 1010.50 1010.67 1011.14 1011.11 1011.08 1011.46 1012.48 1013.38 1014.17 1014.83 1015.29 1015.53 1015.51 1015.37 1015.59 1015.45 1015.33 1015.31 1014.98 1014.73 1014.54 1014.35 1014.45 1014.28 1013.98 1013.60 1013.25 1012.91 1012.67 1012.47 1012.33 1012.17 1012.03 1011.97 1012.14 1012.23 1012.28 1012.33 1012.58 1012.85 1013.31 1013.73 1014.19 1014.82 1015.20
1010.71 1010.92 1011.05 1010.83 1010.66 1010.98 1011.36 1011.22 1010.96 1011.39 1012.27 1013.22 1014.12 1014.89 1015.33 1015.49 1015.51 1015.36 1015.42 1015.34 1015.25 1015.18 1014.87 1014.63 1014.56 1014.41 1014.33 1014.16 1013.67 1013.28 1012.94 1012.71 1012.39 1012.29 1012.13 1011.80 1011.51 1011.42 1011.71 1011.73 1011.96 1012.08 1012.45 1012.86 1013.32 1013.95 1014.33 1014.87 1015.36
1011.02 1011.14 1011.09 1011.11 1010.93 1011.17 1011.42 1011.25 1011.21 1011.68 1012.37 1012.98 1013.89 1014.69 1015.27 1015.46 1015.33 1015.21 1015.23 1015.19 1015.09 1015.08 1014.77 1014.57 1014.55 1014.35 1014.15 1013.96 1013.57 1013.22 1013.00 1012.68 1012.64 1012.34 1011.95 1011.65 1011.51 1011.49 1011.52 1011.84 1011.99 1012.10 1012.51 1012.97 1013.48 1013.82 1014.53 1014.94 1015.49
1010.71 1010.97 1011.20 1011.09 1010.88 1011.11 1011.16 1011.28 1010.77 1011.43 1012.27 1013.05 1013.73 1014.34 1014.89 1015.16 1015.05 1015.13 1015.11 1015.11 1015.07 1015.04 1014.84 1014.62 1014.55 1014.26 1014.26 1014.03 1013.79 1013.52 1013.20 1012.96 1012.95 1012.39 1012.05 1011.81 1011.84 1011.90 1011.86 1012.18 1012.34 1012.44 1012.72 1013.01 1013.55 1013.96 1014.63 1015.23 1015.67
1010.67 1011.00 1011.32 1011.04 1010.83 1011.47 1011.22 1011.33 1010.93 1011.35 1011.37 1012.01 1012.84 1013.97 1014.48 1014.91 1015.01 1015.07 1015.12 1015.12 1015.11 1014.97 1014.84 1014.63 1014.44 1014.35 1014.37 1014.20 1013.90 1013.80 1013.48 1013.34 1013.19 1012.59 1012.34 1012.09 1011.45 1012.03 1012.21 1012.24 1012.49 1012.69 1012.94 1013.42 1013.82 1014.39 1014.81 1015.30 1015.92
1010.37 1010.86 1011.12 1011.17 1011.14 1011.43 1011.60 1011.84 1011.30 1010.91 1011.29 1011.78 1012.57 1013.22 1014.12 1014.56 1014.90 1015.03 1015.11 1015.14 1015.17 1014.94 1014.82 1014.65 1014.52 1014.46 1014.48 1014.23 1013.89 1013.63 1013.24 1013.46 1013.27 1012.80 1012.81 1012.54 1012.18 1012.23 1012.11 1012.31 1012.56 1012.87 1013.32 1013.88 1014.30 1014.61 1014.86 1015.32 1016.36
1009.87 1010.17 1010.65 1011.35 1012.01 1012.23 1011.99 1012.09 1011.81 1011.15 1011.24 1011.51 1012.03 1012.69 1013.28 1014.12 1014.67 1014.90 1015.00 1015.13 1015.20 1014.88 1014.80 1014.64 1014.56 1014.57 1014.51 1014.33 1014.00 1014.02 1013.96 1013.94 1013.68 1013.56 1013.28 1013.07 1012.64 1012.58 1012.71 1012.63 1012.98 1013.41 1013.42 1014.14 1014.57 1014.91 1015.10 1015.56 1016.45
1009.49 1009.85 1010.64 1011.41 1012.33 1012.75 1012.61 1012.97 1011.65 1011.30 1011.16 1010.93 1010.96 1011.87 1012.65 1013.45 1014.13 1014.56 1014.78 1014.87 1014.86 1014.78 1014.84 1014.73 1014.59 1014.73 1014.70 1014.52 1014.28 1014.15 1014.20 1014.27 1013.84 1013.39 1013.52 1013.46 1013.32 1013.17 1013.25 1013.50 1013.58 1014.03 1014.31 1014.61 1014.43 1013.72 1015.57 1015.69 1016.44
1008.72 1010.06 1011.24 1012.33 1013.10 1013.56 1012.63 1012.63 1011.79 1010.88 1009.94 1009.73 1009.99 1011.05 1012.18 1013.01 1013.85 1014.26 1014.37 1014.76 1014.80 1014.75 1014.85 1014.89 1014.76 1014.79 1014.90 1014.85 1014.50 1014.33 1014.32 1014.50 1014.38 1014.02 1013.70 1013.26 1013.20 1013.46 1013.43 1013.64 1013.97 1014.52 1014.91 1015.09 1015.32 1015.59 1015.93 1016.46 1016.83
1009.02 1010.76 1012.30 1013.23 1013.77 1013.41 1012.55 1012.46 1010.71 1009.00 1008.48 1008.80 1009.25 1010.25 1011.22 1012.56 1013.46 1014.03 1014.47 1014.72 1014.81 1014.80 1014.81 1015.03 1015.01 1015.00 1015.10 1015.06 1014.87 1014.68 1014.53 1014.34 1014.37 1014.55 1014.56 1014.30 1014.12 1014.04 1014.06 1013.83 1014.30 1014.70 1015.22 1015.57 1015.80 1016.19 1016.53 1016.94 1017.37
1008.88 1010.29 1012.09 1013.09 1013.74 1013.21 1012.33 1011.41 1009.31 1008.13 1007.98 1008.04 1008.41 1009.62 1011.07 1012.18 1013.08 1013.67 1014.09 1014.35 1014.62 1014.69 1014.72 1015.00 1015.14 1015.29 1015.26 1015.30 1015.11 1014.91 1014.78 1014.66 1014.73 1014.63 1014.75 1014.66 1014.76 1014.60 1014.30 1014.42 1014.70 1015.25 1015.46 1015.88 1016.19 1016.75 1016.94 1017.53 1017.78
1008.43 1009.60 1010.09 1011.77 1012.84 1013.00 1011.98 1010.49 1008.71 1007.89 1008.18 1008.61 1009.17 1010.19 1011.05 1011.78 1012.83 1013.34 1013.78 1014.07 1014.40 1014.64 1014.57 1014.85 1015.10 1015.34 1015.51 1015.48 1015.38 1015.24 1015.11 1014.98 1015.11 1015.14 1015.02 1015.03 1015.27 1015.22 1015.24 1015.09 1015.07 1015.36 1015.71 1015.81 1016.64 1017.00 1017.56 1017.70 1018.05
1006.67 1008.03 1010.04 1011.55 1012.64 1012.89 1011.85 1010.65 1008.98 1008.24 1008.41 1008.67 1009.67 1010.32 1010.89 1011.64 1012.59 1013.07 1013.49 1013.77 1014.14 1014.35 1014.45 1014.71 1014.93 1015.18 1015.51 1015.63 1015.60 1015.50 1015.43 1015.27 1015.42 1015.46 1015.45 1015.42 1015.63 1015.59 1015.67 1015.45 1015.40 1015.48 1015.76 1016.20 1016.58 1017.22 1017.63 1018.00 1018.30
1007.18 1008.07 1009.57 1010.74 1011.84 1012.02 1011.79 1010.15 1008.36 1007.95 1007.59 1007.95 1008.83 1009.84 1010.45 1010.89 1011.84 1012.48 1013.03 1013.32 1013.76 1014.15 1014.39 1014.56 1014.91 1015.07 1015.46 1015.73 1015.77 1015.77 1015.61 1015.65 1015.74 1015.85 1015.90 1015.79 1015.68 1015.53 1015.76 1015.84 1015.77 1015.92 1016.19 1016.62 1017.06 1017.37 1017.83 1018.02 1018.46
1005.84 1006.89 1008.23 1010.14 1011.35 1011.38 1010.74 1008.82 1007.54 1007.49 1007.32 1007.04 1008.17 1009.71 1010.30 1011.12 1011.21 1011.89 1012.57 1012.98 1013.58 1014.03 1014.26 1014.37 1014.83 1015.01 1015.29 1015.64 1015.86 1015.92 1015.96 1015.95 1016.05 1016.25 1016.35 1016.30 1016.19 1016.15 1015.96 1016.24 1016.45 1016.64 1016.70 1017.03 1017.09 1017.65 1018.20 1018.58 1018.98
Wind_Speed
7 5 2 3 4 5 3 6 2 2 2 2 3 5 7 5 7 7 5 2 6 3 7 9 13 13 14 15 15 14 13 12 11 11 11 11 10 10 11 10 10 10 10 10 9 8 6 4 4
4 3 3 3 5 3 6 4 6 6 3 3 4 2 2 2 2 2 0 4 6 6 5 6 13 16 17 17 16 15 15 14 14 14 13 12 11 12 12 11 11 10 11 12 11 10 7 5 5
5 3 4 4 3 5 6 6 7 3 4 3 3 2 2 2 2 6 7 8 6 6 7 9 18 17 15 16 16 15 15 15 16 16 15 14 13 12 11 11 11 11 11 12 12 10 10 7 6
2 4 4 4 5 7 7 6 4 2 1 4 3 2 1 3 4 8 6 4 4 6 4 6 14 14 16 15 15 15 16 17 18 17 16 15 14 14 13 12 10 10 12 13 13 12 11 9 7
4 3 3 1 5 5 6 4 7 6 1 2 4 3 2 3 0 5 6 4 7 5 4 6 11 12 14 15 16 16 17 18 18 18 17 17 17 16 15 15 14 12 13 13 15 12 12 10 7
4 3 4 3 6 5 5 5 6 5 4 2 4 5 4 3 3 5 5 7 5 5 3 3 7 12 13 15 15 15 17 18 18 18 19 18 18 18 17 17 15 13 14 15 16 14 13 11 7
5 4 4 4 6 6 5 5 5 6 3 4 7 5 2 1 4 5 6 5 5 5 4 2 4 6 8 8 10 10 12 13 13 17 21 20 19 20 18 16 13 13 15 16 16 14 14 11 9
5 5 3 4 5 8 5 5 1 6 6 3 5 5 5 4 6 6 7 6 4 3 2 4 1 3 3 5 9 12 13 14 13 15 15 15 18 20 22 17 16 13 15 15 16 15 15 12 10
3 4 3 6 4 8 1 3 1 1 6 1 0 4 2 8 6 5 4 4 3 2 3 1 1 2 4 3 4 8 11 12 12 10 12 9 3 5 9 12 13 14 15 14 16 15 15 13 11
5 4 8 7 6 6 4 5 7 3 3 1 2 4 6 6 5 5 3 2 4 5 4 2 2 3 4 3 3 4 4 4 4 4 5 4 3 3 5 8 13 13 16 15 14 16 17 13 3
6 6 7 8 8 7 5 2 4 6 4 7 10 9 5 4 5 4 1 1 4 4 3 5 2 3 3 3 3 2 2 3 3 4 5 3 3 2 2 1 1 0 6 3 8 8 4 5 4
3 10 6 8 8 7 6 6 5 5 8 4 8 9 6 7 6 4 2 2 4 4 4 5 3 4 4 3 3 3 3 3 2 3 4 3 2 3 3 2 3 3 2 4 3 3 4 5 5
5 5 1 4 7 4 6 5 4 8 3 6 10 7 9 7 6 3 3 2 4 4 5 5 4 4 4 4 3 3 4 3 3 3 4 2 3 3 3 3 3 3 3 3 3 5 6 5 6
7 4 2 2 1 2 6 1 2 6 6 7 9 9 7 7 7 4 3 1 4 4 5 4 4 3 4 4 4 4 4 4 4 3 4 4 3 3 3 3 3 3 3 3 4 6 6 6 6
3 3 5 1 4 3 4 3 9 4 7 9 9 6 7 7 7 6 3 3 3 2 4 4 4 3 4 5 4 4 3 3 2 3 4 5 4 4 3 2 3 3 3 4 4 5 5 6 6
4 5 3 5 4 3 6 11 6 9 12 11 8 7 7 6 6 5 5 4 2 1 4 4 4 4 5 5 4 3 3 2 3 3 3 4 4 4 3 3 3 4 5 4 5 6 6 6 8
7 3 4 6 7 3 5 9 3 7 10 9 8 7 7 6 4 4 6 5 2 1 5 4 5 4 5 5 4 4 4 3 3 3 3 4 2 2 4 4 5 7 6 6 7 6 7 7 7
4 3 3 4 3 4 3 14 6 6 10 9 9 8 7 7 7 6 6 6 4 1 4 3 4 4 5 4 4 3 2 3 3 3 2 1 1 4 6 3 5 6 6 8 6 9 6 8 8
4 3 5 4 5 5 8 10 16 6 6 8 9 9 8 9 6 5 5 5 4 1 4 4 5 5 3 3 3 3 3 3 3 3 3 1 1 3 7 4 3 4 7 9 9 10 11 9 11
3 3 5 6 3 6 8 11 9 7 9 11 13 9 9 6 6 5 5 3 3 2 3 3 4 4 4 2 2 1 2 2 1 3 5 5 3 6 3 6 5 5 6 9 11 10 8 9 7
5 4 5 7 1 3 1 7 6 5 3 4 6 7 6 10 9 7 6 5 4 1 2 3 4 5 4 5 2 3 2 2 2 4 2 4 7 7 7 7 6 7 6 6 9 6 13 9 7
4 8 5 4 2 5 4 7 7 5 6 7 9 10 12 10 6 5 6 5 6 2 1 3 3 4 3 5 4 4 3 3 3 2 2 3 6 8 8 8 5 8 6 8 8 3 7 11 9
10 4 6 3 4 2 2 3 8 2 7 11 12 12 11 11 10 9 8 7 7 4 0 1 2 4 4 2 4 3 4 3 2 2 3 5 4 6 6 6 6 7 6 7 9 7 8 6 4
3 3 6 4 4 2 8 7 6 5 9 7 4 12 12 12 9 8 7 5 4 4 2 2 3 3 3 1 3 4 4 3 3 4 5 6 4 4 5 4 5 5 6 8 8 7 8 6 6
5 6 4 6 4 7 3 4 10 9 10 9 8 13 14 12 10 9 8 6 5 6 4 2 3 2 2 1 2 2 3 4 5 4 3 3 2 3 2 2 3 4 5 6 8 7 6 5 5
7 10 7 6 3 6 3 6 8 6 5 8 6 10 13 12 10 9 9 8 7 7 6 4 4 1 1 1 0 2 2 3 3 3 4 3 2 2 1 1 1 6 3 6 7 6 4 4 4
5 5 6 5 1 2 4 7 11 3 5 6 7 11 14 13 10 10 8 8 7 7 7 7 5 3 1 2 1 0 1 2 4 5 3 3 3 3 5 1 3 4 5 4 6 5 4 4 3
9 7 2 3 2 4 4 4 7 8 5 4 6 8 11 9 9 8 8 8 6 6 4 6 5 5 3 2 2 1 0 2 4 5 4 3 3 1 5 4 4 5 6 6 6 3 6 6 3
3 3 5 5 5 6 3 8 7 5 9 8 9 11 13 15 14 10 9 7 7 4 6 6 6 5 4 3 2 2 1 3 4 5 5 3 4 3 6 5 6 6 7 8 7 6 8 7 6
7 11 9 6 5 3 4 9 5 6 9 6 6 8 7 9 13 10 10 8 7 7 7 7 6 6 5 4 3 3 2 3 4 4 4 3 6 4 5 6 8 7 7 4 8 8 7 10 10
Wind_Direction
149 156 183 21 48 61 274 265 275 247 300 211 129 151 187 151 163 212 275 243 258 271 187 203 201 202 217 218 224 229 230 233 242 251 251 247 247 255 264 267 273 266 258 254 253 259 256 273 299
130 159 39 80 82 43 273 248 225 218 215 98 97 78 109 216 131 179 99 251 205 221 188 184 202 210 218 222 227 231 232 237 243 250 252 247 243 244 251 256 261 264 265 251 252 255 247 246 260
141 58 74 83 106 200 229 229 209 251 223 183 133 55 158 192 138 181 232 210 208 208 187 200 211 217 223 228 236 240 242 245 248 250 253 250 243 240 243 253 259 261 263 267 243 247 251 239 244
84 21 41 93 221 261 219 248 197 256 259 204 150 180 309 211 174 192 209 209 224 237 208 226 225 227 232 238 243 249 249 250 253 253 255 253 245 239 238 245 249 267 268 259 260 236 245 246 235
42 57 50 11 251 248 256 254 172 188 241 215 146 206 219 284 230 45 357 332 219 228 224 225 230 236 241 246 253 254 257 256 257 261 255 248 239 236 238 245 251 257 269 257 260 253 234 236 231
57 104 46 302 276 279 260 204 165 189 209 178 104 135 232 303 57 9 61 45 46 136 153 207 240 250 243 249 260 272 276 275 264 259 258 242 237 234 234 235 241 252 257 264 246 253 233 226 223
117 98 212 246 271 300 236 157 194 186 187 234 154 142 251 101 82 68 61 51 41 63 57 1 320 337 351 339 315 308 310 307 302 286 256 251 239 235 239 235 241 248 251 256 243 247 243 229 215
122 99 138 241 253 266 231 181 214 152 216 94 142 196 226 163 112 82 50 30 27 9 337 270 285 5 347 327 315 307 310 306 299 304 290 274 265 252 236 234 239 246 247 251 242 243 239 222 216
131 72 215 247 199 249 247 163 277 5 128 89 311 146 141 118 114 73 31 5 355 325 326 334 348 349 348 303 315 328 314 304 302 310 307 307 320 298 266 254 246 235 248 249 242 238 229 215 205
117 132 223 200 198 236 215 189 174 169 140 79 68 64 88 87 91 101 88 6 335 321 327 331 329 340 323 308 326 312 307 298 282 302 302 285 268 256 240 229 241 239 248 241 241 228 214 206 173
184 200 209 230 212 186 195 234 174 132 254 210 194 164 129 112 115 127 74 305 295 289 305 332 323 313 304 305 310 307 263 256 266 264 266 272 266 230 267 225 277 292 268 290 234 210 193 157 165
173 238 186 252 186 146 187 133 196 202 229 218 164 144 137 152 161 156 206 287 278 308 317 334 333 328 313 302 317 304 298 289 272 265 265 263 275 236 220 201 217 214 225 243 197 175 146 153 150
192 258 188 242 156 172 121 198 192 238 333 110 122 140 154 162 170 207 208 248 296 329 329 325 322 332 330 328 318 301 297 288 288 276 261 238 241 208 195 205 199 204 191 199 155 148 157 151 150
208 202 56 54 166 177 153 182 140 239 138 130 146 173 167 164 188 196 189 231 319 336 320 321 287 309 346 320 302 295 283 268 266 255 247 231 229 210 196 206 205 197 194 156 156 146 151 153 157
93 103 36 263 148 247 114 299 235 189 158 160 178 164 164 194 204 185 206 198 278 349 303 317 307 320 344 314 295 282 276 286 295 273 265 248 226 229 215 225 186 186 168 160 147 130 131 134 167
87 53 93 279 152 257 140 264 265 182 165 189 175 170 175 196 207 187 213 229 255 42 303 320 340 341 334 304 288 288 306 309 288 273 272 264 255 221 213 180 192 155 164 151 141 132 130 146 166
13 218 208 310 203 134 175 265 277 172 182 184 173 176 181 198 211 211 218 236 258 54 304 341 346 325 307 300 292 307 315 314 309 326 317 304 251 171 171 160 154 157 143 135 132 138 137 152 130
232 225 227 241 242 185 223 266 256 199 199 193 173 174 186 196 209 208 214 234 268 14 312 333 324 327 323 294 293 321 310 338 22 345 319 120 15 120 137 104 118 136 133 137 136 138 139 130 128
193 194 246 266 242 176 234 253 273 205 207 187 186 181 189 202 213 210 220 235 280 199 324 340 328 342 348 331 335 341 337 351 13 332 22 293 94 87 132 110 108 118 143 143 140 133 138 137 131
158 220 263 273 278 160 271 270 263 187 223 203 189 185 187 188 181 204 216 217 282 337 282 327 318 358 346 317 304 316 317 12 330 337 13 2 60 104 77 108 119 116 132 128 132 140 144 129 137
198 172 232 237 321 239 149 308 302 270 243 177 185 178 166 187 184 198 201 215 258 332 304 306 310 331 331 340 333 347 343 66 34 347 17 16 59 73 71 84 83 80 121 114 132 140 139 130 121
253 216 228 267 51 268 131 271 286 284 278 228 194 184 181 184 181 195 190 199 222 229 279 28 357 345 338 343 50 49 22 23 348 11 355 42 50 59 69 64 69 87 99 104 134 102 117 135 129
231 142 195 225 203 108 273 72 263 352 285 258 214 194 184 179 179 192 191 204 216 217 146 21 1 25 12 351 81 72 33 49 346 16 79 51 49 60 64 76 69 79 80 105 120 87 100 124 100
165 107 49 55 95 53 234 155 279 220 216 260 179 187 184 173 184 196 193 196 213 212 140 74 27 2 42 320 51 71 55 44 68 24 17 13 26 60 57 73 73 90 99 115 108 88 84 95 97
95 70 340 342 8 222 108 98 234 254 243 230 227 189 173 169 175 187 182 198 205 201 187 148 86 359 33 267 306 24 55 49 62 82 92 71 36 29 78 94 104 57 97 97 124 95 91 95 118
180 154 157 226 227 260 138 231 251 229 308 282 220 174 156 163 178 182 186 194 196 207 194 180 137 130 6 134 170 31 67 58 50 57 92 72 58 92 130 141 124 110 109 123 131 119 120 133 145
178 154 198 134 156 63 242 288 311 268 8 19 104 141 168 168 177 183 187 194 196 209 199 187 173 151 199 182 217 43 326 70 68 65 78 76 81 83 105 273 242 123 143 153 123 142 128 139 117
162 162 112 16 190 228 278 285 241 301 303 173 163 181 174 161 176 183 189 194 205 215 176 180 189 171 178 177 166 219 305 28 57 73 89 136 88 59 114 111 108 97 112 118 118 119 135 122 142
124 161 58 122 146 182 234 258 218 223 250 231 194 192 182 177 181 182 193 192 204 199 180 181 184 177 172 185 156 144 37 61 55 68 73 80 70 71 93 103 85 90 111 116 127 117 128 117 111
207 188 168 157 230 209 182 261 242 262 271 208 167 188 179 196 181 175 189 178 188 205 180 180 181 178 187 179 150 145 111 70 66 69 72 68 91 57 75 87 86 79 73 80 104 106 107 118 118